When you browse on this site, cookies collect data to enhance your experience and personalize the content and advertising you see.
Visit our Privacy Policy to learn more. By continuing to use the site, you agree to this use of cookies and data.
  • In Lithuania
  • List of Countries
  • For 7 days
  • Water Temperature
  • Weather Map
  • Weather Widgets
  • user-avatar
    Login

    Hourly Weather Gaborone

    Today, 28 January, Tuesday

    Time Temperature Precipitation Wind Pressure Humidity
    00:00 +24°C° 0 mm 2 mps 677 mmHg 37%
    01:00 +23°C° 0 mm 2 mps 677 mmHg 46%
    02:00 +21°C° 0 mm 2 mps 677 mmHg 54%
    03:00 +21°C° 0 mm 2 mps 677 mmHg 64%
    04:00 +21°C° 0 mm 2 mps 677 mmHg 73%
    05:00 +20°C° 0 mm 2 mps 677 mmHg 82%
    06:00 +21°C° 0 mm 3 mps 678 mmHg 81%
    07:00 +21°C° 0 mm 3 mps 678 mmHg 79%
    08:00 +22°C° 0 mm 4 mps 679 mmHg 77%
    09:00 +24°C° 0 mm 3 mps 679 mmHg 72%
    10:00 +25°C° 0 mm 3 mps 679 mmHg 67%
    11:00 +26°C° 0 mm 3 mps 679 mmHg 63%
    12:00 +29°C° 0 mm 2 mps 679 mmHg 53%
    13:00 +31°C° 0 mm 1 mps 679 mmHg 44%
    14:00 +34°C° 0 mm 1 mps 678 mmHg 34%
    15:00 +34°C° 0 mm 1 mps 678 mmHg 33%
    16:00 +34°C° 0 mm 1 mps 678 mmHg 31%
    17:00 +33°C° 0 mm 1 mps 677 mmHg 29%
    18:00 +32°C° 0 mm 2 mps 677 mmHg 33%
    19:00 +30°C° 0 mm 2 mps 676 mmHg 36%
    20:00 +28°C° 0 mm 2 mps 676 mmHg 39%
    21:00 +27°C° 0 mm 2 mps 676 mmHg 44%
    22:00 +27°C° 0 mm 2 mps 676 mmHg 50%
    23:00 +26°C° 0 mm 2 mps 677 mmHg 55%

    Tomorrow, 29 January, Wednesday

    Time Temperature Precipitation Wind Pressure Humidity
    00:00 +25°C° 0 mm 2 mps 676 mmHg 58%
    01:00 +25°C° 0 mm 2 mps 676 mmHg 60%
    02:00 +24°C° 0 mm 2 mps 676 mmHg 63%
    03:00 +23°C° 0 mm 2 mps 676 mmHg 64%
    04:00 +23°C° 0 mm 1 mps 676 mmHg 66%
    05:00 +22°C° 0 mm 1 mps 676 mmHg 67%
    06:00 +24°C° 0 mm 1 mps 677 mmHg 63%
    07:00 +25°C° 0 mm 2 mps 677 mmHg 58%
    08:00 +26°C° 0 mm 2 mps 678 mmHg 54%
    09:00 +29°C° 0 mm 2 mps 678 mmHg 47%
    10:00 +31°C° 0 mm 3 mps 679 mmHg 40%
    11:00 +34°C° 0 mm 3 mps 679 mmHg 33%
    12:00 +36°C° 0 mm 2 mps 679 mmHg 28%
    13:00 +37°C° 0 mm 2 mps 678 mmHg 23%
    14:00 +39°C° 0 mm 1 mps 678 mmHg 18%
    15:00 +39°C° 0 mm 1 mps 677 mmHg 18%
    16:00 +37°C° 0 mm 1 mps 677 mmHg 18%
    17:00 +37°C° 0 mm 1 mps 677 mmHg 18%
    18:00 +35°C° 0 mm 1 mps 677 mmHg 20%
    19:00 +34°C° 0 mm 1 mps 677 mmHg 21%
    20:00 +32°C° 0 mm 1 mps 677 mmHg 23%
    21:00 +31°C° 0 mm 1 mps 677 mmHg 26%
    22:00 +30°C° 0 mm 1 mps 677 mmHg 28%
    23:00 +29°C° 0 mm 1 mps 677 mmHg 31%

    Day after tomorrow, 30 January, Thursday

    Time Temperature Precipitation Wind Pressure Humidity
    00:00 +28°C° 0 mm 1 mps 677 mmHg 32%
    01:00 +28°C° 0 mm 1 mps 676 mmHg 33%
    02:00 +27°C° 0 mm 1 mps 676 mmHg 34%
    03:00 +26°C° 0 mm 1 mps 676 mmHg 35%
    04:00 +26°C° 0 mm 1 mps 677 mmHg 37%
    05:00 +25°C° 0 mm 1 mps 677 mmHg 38%
    06:00 +26°C° 0 mm 2 mps 677 mmHg 37%
    07:00 +27°C° 0 mm 3 mps 678 mmHg 37%
    08:00 +28°C° 0 mm 3 mps 679 mmHg 36%
    09:00 +30°C° 0 mm 3 mps 679 mmHg 33%
    10:00 +33°C° 0 mm 3 mps 680 mmHg 30%
    11:00 +35°C° 0 mm 4 mps 680 mmHg 27%
    12:00 +36°C° 0 mm 3 mps 680 mmHg 25%
    13:00 +37°C° 0 mm 3 mps 679 mmHg 22%
    14:00 +39°C° 0 mm 2 mps 679 mmHg 20%
    15:00 +38°C° 0 mm 3 mps 678 mmHg 21%
    16:00 +37°C° 0 mm 3 mps 678 mmHg 22%
    17:00 +37°C° 0 mm 3 mps 677 mmHg 23%
    18:00 +35°C° 0 mm 3 mps 677 mmHg 29%
    19:00 +31°C° 0 mm 3 mps 677 mmHg 35%
    20:00 +29°C° 0 mm 2 mps 678 mmHg 41%
    21:00 +28°C° 0.1 mm 3 mps 678 mmHg 44%
    22:00 +28°C° 0.1 mm 5 mps 679 mmHg 48%
    23:00 +27°C° 0.1 mm 6 mps 679 mmHg 51%

    31 January, Friday

    Time Temperature Precipitation Wind Pressure Humidity
    00:00 +26°C° 0.4 mm 5 mps 679 mmHg 55%
    01:00 +25°C° 0.4 mm 4 mps 678 mmHg 59%
    02:00 +25°C° 0.4 mm 4 mps 678 mmHg 63%
    03:00 +24°C° 0 mm 3 mps 678 mmHg 64%
    04:00 +22°C° 0 mm 3 mps 678 mmHg 64%
    05:00 +22°C° 0 mm 3 mps 678 mmHg 65%
    06:00 +24°C° 0 mm 3 mps 679 mmHg 61%
    07:00 +24°C° 0 mm 3 mps 679 mmHg 57%
    08:00 +25°C° 0 mm 4 mps 680 mmHg 52%
    09:00 +27°C° 0 mm 4 mps 680 mmHg 45%
    10:00 +29°C° 0 mm 4 mps 680 mmHg 38%
    11:00 +32°C° 0 mm 4 mps 681 mmHg 31%
    12:00 +34°C° 0 mm 3 mps 680 mmHg 28%
    13:00 +35°C° 0 mm 3 mps 679 mmHg 26%
    14:00 +37°C° 0 mm 3 mps 679 mmHg 23%
    15:00 +37°C° 0 mm 3 mps 678 mmHg 23%
    16:00 +37°C° 0 mm 3 mps 678 mmHg 22%
    17:00 +37°C° 0 mm 3 mps 677 mmHg 22%
    18:00 +35°C° 0 mm 3 mps 677 mmHg 25%
    19:00 +32°C° 0 mm 2 mps 677 mmHg 27%
    20:00 +30°C° 0 mm 2 mps 677 mmHg 30%
    21:00 +29°C° 0 mm 3 mps 678 mmHg 37%
    22:00 +27°C° 0 mm 4 mps 678 mmHg 43%
    23:00 +26°C° 0 mm 4 mps 678 mmHg 49%

    1 February, Saturday

    Time Temperature Precipitation Wind Pressure Humidity
    00:00 +25°C° 0 mm 4 mps 678 mmHg 52%
    01:00 +25°C° 0 mm 3 mps 678 mmHg 55%
    02:00 +24°C° 0 mm 2 mps 677 mmHg 59%
    03:00 +24°C° 0 mm 1 mps 677 mmHg 58%
    04:00 +23°C° 0 mm 1 mps 677 mmHg 58%
    05:00 +23°C° 0 mm 1 mps 678 mmHg 57%
    06:00 +24°C° 0 mm 1 mps 678 mmHg 52%
    07:00 +26°C° 0 mm 2 mps 679 mmHg 47%
    08:00 +27°C° 0 mm 3 mps 679 mmHg 42%
    09:00 +29°C° 0 mm 3 mps 679 mmHg 37%
    10:00 +31°C° 0 mm 3 mps 679 mmHg 33%
    11:00 +34°C° 0 mm 3 mps 680 mmHg 28%
    12:00 +35°C° 0 mm 3 mps 679 mmHg 26%
    13:00 +36°C° 0 mm 3 mps 679 mmHg 23%
    14:00 +38°C° 0 mm 3 mps 678 mmHg 21%
    15:00 +38°C° 0 mm 3 mps 678 mmHg 20%
    16:00 +38°C° 0 mm 3 mps 677 mmHg 19%
    17:00 +38°C° 0 mm 3 mps 677 mmHg 18%
    18:00 +36°C° 0 mm 3 mps 676 mmHg 21%
    19:00 +34°C° 0 mm 2 mps 676 mmHg 25%
    20:00 +31°C° 0 mm 2 mps 676 mmHg 28%
    21:00 +30°C° 0 mm 1 mps 676 mmHg 29%
    22:00 +29°C° 0 mm 1 mps 677 mmHg 30%
    23:00 +29°C° 0 mm 1 mps 677 mmHg 31%

    2 February, Sunday

    Time Temperature Precipitation Wind Pressure Humidity
    00:00 +28°C° 0 mm 2 mps 677 mmHg 33%
    01:00 +27°C° 0 mm 3 mps 677 mmHg 35%
    02:00 +27°C° 0 mm 4 mps 677 mmHg 37%
    03:00 +26°C° 0 mm 3 mps 678 mmHg 40%
    04:00 +25°C° 0 mm 3 mps 678 mmHg 43%
    05:00 +25°C° 0 mm 2 mps 678 mmHg 46%
    06:00 +26°C° 0 mm 3 mps 678 mmHg 46%
    07:00 +26°C° 0 mm 4 mps 679 mmHg 46%
    08:00 +27°C° 0 mm 5 mps 679 mmHg 46%
    09:00 +29°C° 0 mm 4 mps 679 mmHg 42%
    10:00 +32°C° 0 mm 4 mps 680 mmHg 38%
    11:00 +34°C° 0 mm 4 mps 680 mmHg 34%
    12:00 +35°C° 0 mm 3 mps 679 mmHg 30%
    13:00 +37°C° 0 mm 3 mps 679 mmHg 27%
    14:00 +38°C° 0 mm 2 mps 678 mmHg 24%
    15:00 +38°C° 0 mm 2 mps 678 mmHg 23%
    16:00 +38°C° 0 mm 2 mps 677 mmHg 22%
    17:00 +38°C° 0 mm 2 mps 677 mmHg 21%
    18:00 +36°C° 0 mm 2 mps 677 mmHg 24%
    19:00 +33°C° 0 mm 1 mps 677 mmHg 27%
    20:00 +32°C° 0 mm 1 mps 677 mmHg 29%
    21:00 +30°C° 0 mm 2 mps 677 mmHg 36%
    22:00 +28°C° 0 mm 3 mps 677 mmHg 43%
    23:00 +27°C° 0 mm 3 mps 678 mmHg 49%
    Show more